Regional Weather Roundup
Issued by NWS

Home | Current Version | Previous Version | Graphics & Text | Print | Product List | Glossary On
Versions: 1 2 3 4 5 6 7 8 9 10 11 12 13 14 15 16 17 18 19 20 21 22 23 24 25 26 27
000
ASUS45 KBOI 302310
RWRID

IDAHO REGIONAL WEATHER ROUNDUP
NATIONAL WEATHER SERVICE BOISE ID
500 PM MDT MON MAY 30 2016

NOTE: "FAIR" INDICATES FEW OR NO CLOUDS BELOW 12000 FEET
WITH NO SIGNIFICANT WEATHER AND/OR OBSTRUCTIONS TO VISIBILITY

IDZ012-014-310000-
SOUTHWEST IDAHO


CITY           SKY/WX    TMP DP  RH WIND       PRES   REMARKS
BOISE          SUNNY     75  30  19 NW16G24   30.08F
CALDWELL       SUNNY     76  34  21 NW13G20   30.09F
MOUNTAIN HOME  SUNNY     78  39  24 NW17G24   30.07F
$$

IDZ016-017-310000-
SOUTHCENTRAL IDAHO


CITY           SKY/WX    TMP DP  RH WIND       PRES   REMARKS
BURLEY         PTSUNNY   69  31  24 W17G26    30.08F
JEROME         PTSUNNY   72  24  16 W23G29    30.09F
TWIN FALLS     PTSUNNY   71  28  20 W17G28    30.10F
$$

IDZ019>023-310000-
SOUTHEAST IDAHO


CITY           SKY/WX    TMP DP  RH WIND       PRES   REMARKS
IDAHO FALLS    CLOUDY    69  32  25 S18       30.05F
POCATELLO      CLOUDY    70  27  20 SW21G28   30.09F
REXBURG        CLOUDY    67  34  29 SW12      30.06F
$$

IDZ006-010-011-018-031-032-310000-
CENTRAL IDAHO MOUNTAINS


CITY           SKY/WX    TMP DP  RH WIND       PRES   REMARKS
MCCALL         SUNNY     64  26  23 NW10G20   30.15F
HAILEY         MOSUNNY   70  36  28 SW8       30.08F
STANLEY          N/A     65  14  14 N10G21    30.17S
SALMON         SUNNY     68  28  22 N3        30.07F
CHALLIS        SUNNY     71  19  14 VRB6      30.08F
$$

IDZ002-004-006-007-026-310000-
NORTHERN IDAHO


CITY           SKY/WX    TMP DP  RH WIND       PRES   REMARKS
LEWISTON       SUNNY     74  31  20 W7        30.16F
LOWELL           N/A     74  36  25 VRB3      30.14F
COEUR D`ALENE  SUNNY     70  36  28 SW10      30.15F
MULLAN PASS    SUNNY     54  22  28 VRB6G17   30.23F
$$




USA.gov is the U.S. government's official web portal to all federal, state and local government web resources and services.